Location: Cressa
(45.6500°N, 8.5000°E)
Time: 11:09:13
(UTC+00:00)

Daily predictions for brighter satellites

Satellite Brightness Start Highest point End
(mag) Time Altitude Azimuth Time Altitude Azimuth Time Altitude Azimuth
BREEZE-M DEB (TANK) 4.2 15:58:08 10° W 16:01:54 70° N 16:14:37 10° ENE
MOS 1-B 4.4 16:08:46 10° SSE 16:14:32 72° ENE 16:20:21 10° NNW
Cosmos 2369 Rocket 3.0 16:10:15 10° N 16:15:12 29° NE 16:20:05 10° ESE
Cosmos 1943 Rocket 2.5 16:11:40 10° NNW 16:16:59 44° ENE 16:22:19 10° SE
ADEOS Rocket 3.7 16:10:02 10° NNE 16:17:52 83° ESE 16:25:32 10° SSW
Cosmos 2221 4.4 16:15:01 10° SW 16:18:53 32° WNW 16:22:46 10° N
NOAA 12 4.4 16:13:52 10° SE 16:18:55 46° ENE 16:24:00 10° N
H-2A R/B 2.3 16:17:57 10° NNE 16:22:03 47° E 16:26:13 10° S
NOAA 6 4.0 16:20:28 10° SSE 16:25:37 85° ENE 16:30:47 10° NNW
Okean O Rocket 1.9 16:21:36 10° SE 16:25:42 43° ENE 16:29:53 10° N
Cosmos 1782 4.0 16:23:18 10° SE 16:26:27 23° E 16:29:39 10° NE
Okean-O 4.4 16:26:07 10° E 16:27:45 12° ENE 16:29:22 10° NE
CRYOSAT 2 4.4 16:24:38 10° N 16:29:31 68° E 16:34:24 10° S
H-2A R/B 3.5 16:26:24 10° S 16:30:12 59° W 16:34:04 10° NNW
ISS -2.5 16:27:16 10° WNW 16:30:14 28° N 16:32:58 11° ENE
Cosmos 1633 Rocket 3.1 16:26:32 10° N 16:30:50 54° ENE 16:35:05 10° SSE
Cosmos 1933 3.4 16:28:02 10° S 16:31:59 57° E 16:36:00 10° NNE
Cosmos 2218 Rocket 4.0 16:31:15 10° N 16:37:17 56° ENE 16:43:19 10° SSE
Cosmos 2366 rocket 4.1 16:32:11 10° N 16:38:15 54° ENE 16:44:15 10° SSE
Cosmos 1867 4.2 16:33:21 10° SW 16:38:41 55° NW 16:44:04 10° NNE
ERS-2 3.4 16:36:10 10° NE 16:39:03 22° E 16:41:55 10° SSE
Meteor 1-25 Rocket 4.2 16:33:28 10° N 16:39:07 68° ENE 16:44:48 10° SSE
Envisat 3.4 16:36:50 10° S 16:41:53 69° WSW 16:46:58 10° NNW
Lacrosse 5 rocket 1.8 16:43:47 10° WSW 16:47:18 44° NW 16:50:15 13° NE
Cosmos 773 Rocket 4.0 16:43:01 10° SSW 16:48:16 75° ESE 16:53:35 10° NNE
SL-23 DEB 4.2 16:45:15 10° SW 16:48:40 57° SE 16:52:39 16° ENE
NOSS 3-2 (A) 4.4 16:46:26 10° SSE 16:50:49 24° ESE 16:54:01 16° ENE
YAOGAN 6 3.3 16:47:26 10° S 16:51:01 57° W 16:54:34 10° NNW
Cosmos 1606 4.0 16:50:04 10° SSW 16:53:46 42° WNW 16:57:29 10° N
Cosmos 2297 4.3 16:49:11 10° NNW 16:54:47 61° WSW 17:00:24 10° S
FengYun 1-2 T 4.2 16:50:37 10° SSE 16:56:06 68° ENE 17:01:34 10° N
AQUARIUS 4.1 16:51:37 10° SSE 16:56:07 88° ENE 17:00:38 10° NNW
Feng Yun 1-1 Rocket 4.5 16:50:49 10° SE 16:56:16 48° ENE 17:01:37 10° N
OE (NEXTSAT) 4.2 16:52:49 10° W 16:56:17 84° N 16:58:30 21° E
SL-16 R/B 2.6 16:52:46 10° SW 16:58:23 65° WNW 17:04:02 10° NNE
CZ-4B R/B 1.6 16:56:26 16° NNE 16:58:37 40° E 17:01:38 10° S
Landsat 5 4.5 16:55:20 10° N 16:59:41 53° WNW 17:04:04 10° SSW
BREEZE-M DEB (TANK) 1.4 17:00:21 10° WSW 17:02:48 80° NNW 17:03:26 37° ENE
USA 215 4.1 16:59:21 17° ENE 17:03:37 33° SE 17:09:22 10° S
SMAP 3.5 17:00:31 10° S 17:05:09 67° WSW 17:09:48 10° NNW
Cosmos 1500 3.9 17:02:54 10° N 17:06:22 31° ENE 17:09:48 10° SE
YAOGAN 1 3.7 17:09:19 23° ENE 17:09:19 23° ENE 17:12:23 10° NNE
USA 238 DEB 4.4 17:04:09 10° S 17:09:49 32° ESE 17:13:06 21° ENE
USA 238 4.4 17:04:15 10° S 17:09:55 32° ESE 17:13:10 21° ENE
Cosmos 1656 Rocket 4.0 17:05:34 10° NNW 17:10:55 41° NE 17:16:09 10° SE
Cosmos 1151 Rocket 3.4 17:07:53 10° SSW 17:12:08 66° W 17:16:24 10° N
Cosmos 1470 Rocket 3.4 17:09:01 10° N 17:13:22 86° E 17:17:40 10° S
MOS 1 Rocket 4.5 17:13:25 21° NE 17:15:37 28° E 17:20:10 10° SSE
Cosmos 158 Rocket 4.5 17:15:01 10° SSE 17:19:28 34° ESE 17:20:55 28° ENE
Cosmos 2263 4.1 17:14:17 10° NNW 17:19:50 61° ENE 17:25:22 10° SE
Cosmos 1515 Rocket 3.4 17:15:45 10° S 17:20:06 77° E 17:24:33 10° NNE
CZ-2C R/B 3.3 17:16:22 10° SE 17:20:55 38° ENE 17:25:21 10° N
SWAS 4.5 17:18:02 10° SSW 17:22:14 59° ESE 17:24:10 30° NE
Cosmos 923 Rocket 4.4 17:18:01 10° S 17:22:48 39° ESE 17:24:50 28° ENE
Cosmos 1238 Rocket 3.5 17:21:42 10° N 17:25:29 38° ENE 17:30:00 10° SSE
COSMO-SKYMED 1 2.6 17:23:06 17° NNE 17:26:18 59° E 17:30:34 10° S
TELKOM 3 4.5 17:24:24 10° WNW 17:26:18 28° NNW 17:26:18 28° NNW
Cosmos 1689 Rocket 4.1 17:29:01 17° SSE 17:29:01 17° SSE 17:29:58 10° SSE
USA 281 3.4 17:21:41 10° SE 17:27:53 47° NE 17:34:06 10° NNW
X-37B 0.6 17:25:54 10° WSW 17:29:03 67° S 17:29:28 58° ESE
YAOGAN 3 4.5 17:24:43 10° SSE 17:29:04 83° ENE 17:33:27 10° NNW
Nadezhda 3 Rocket 4.1 17:23:19 10° SSE 17:29:29 54° E 17:35:39 10° NNE
SAR-Lupe-4 3.6 17:29:14 46° ENE 17:29:52 53° ESE 17:33:23 10° S
Helios 1A Rocket 3.6 17:33:25 34° NNE 17:33:25 34° NNE 17:36:12 10° N
Meteor 2-6 Rocket 4.2 17:27:04 10° S 17:32:32 58° E 17:37:14 13° NNE
Cosmos 2228 Rocket 3.2 17:28:20 10° SSE 17:32:43 50° E 17:34:29 32° NE
Meteor 1-4 Rocket 3.5 17:30:41 10° SSW 17:34:09 46° WNW 17:37:26 11° N
H-2A R/B 2.5 17:35:18 35° E 17:35:48 36° ENE 17:40:27 10° N
Cosmos 1812 2.7 17:32:49 10° S 17:36:32 53° E 17:36:35 53° E
USA 267 3.6 17:34:11 29° ENE 17:37:05 46° NNE 17:43:15 10° NW
Cosmos 1821 Rocket 3.9 17:31:57 10° N 17:38:12 68° E 17:44:30 10° SSE
Cosmos 1939 Rocket 2.9 17:34:29 10° S 17:38:21 78° WSW 17:42:19 10° NNW
CZ-4 R/B 4.3 17:36:02 10° SSE 17:40:09 75° ENE 17:44:17 10° N
CZ-4 R/B 1.8 17:41:27 43° NNE 17:41:27 43° NNE 17:44:33 10° N
Meteor 1-11 Rocket 4.0 17:35:41 10° N 17:41:15 46° ENE 17:46:54 10° SSE
PSLV R/B 3.8 17:42:20 56° ENE 17:42:40 58° E 17:46:39 10° S
BREEZE-M DEB (TANK) 3.4 17:40:01 10° SW 17:42:53 25° SSE 17:42:53 25° SSE
CSL-04 Rocket 4.2 17:44:05 35° NE 17:44:05 35° NE 17:48:08 10° N
Cosmos 1933 Rocket 3.9 17:38:57 10° NNW 17:43:25 68° W 17:47:49 10° S
Cosmos 44 Rocket 3.4 17:38:19 10° NNW 17:43:26 59° NE 17:45:09 39° ESE
IRS-1C Rocket 4.0 17:39:23 10° SSE 17:44:39 90° SW 17:49:59 10° NNW
Cosmos 546 4.4 17:42:09 10° WSW 17:45:58 85° SSE 17:46:15 76° E
SAR-Lupe-1 3.9 17:46:35 75° NE 17:46:50 84° ESE 17:50:26 10° SSW
Lacrosse 4 Rocket 3.3 17:45:45 10° S 17:46:59 17° SSE 17:46:59 17° SSE
Cosmos 1680 Rocket 3.6 17:44:32 10° S 17:49:37 51° ESE 17:50:18 48° E
SL-24 R/B 3.6 17:49:33 52° N 17:50:25 85° WNW 17:54:03 10° SSW
Cosmos 1603 3.6 17:48:18 10° SSW 17:53:55 84° WNW 17:56:56 29° NNE
CZ-2D R/B 3.4 17:51:25 10° S 17:55:13 71° WSW 17:59:05 10° NNW
Cosmos 1943 3.1 17:51:37 10° SSW 17:57:17 89° WNW 17:59:58 33° NNE
Cosmos 2369 Rocket 3.0 17:54:00 10° NW 17:59:29 51° WSW 18:04:55 10° S
Cosmos 1943 Rocket 4.0 17:55:45 10° NW 18:00:33 31° WSW 18:05:22 10° SSW
Meteor 1-5 Rocket 4.3 17:55:46 10° NNW 18:01:42 80° W 18:07:25 10° S
Okean O Rocket 4.3 17:59:04 10° SW 18:02:16 20° W 18:05:30 10° NW
Okean-O 2.5 17:59:06 10° SSE 18:03:32 88° WSW 18:08:00 10° NNW
Cosmos 1461 4.1 17:59:43 10° S 18:02:44 35° SSE 18:02:44 35° SSE
Cosmos 1371 Rocket 4.4 17:59:40 10° NNW 18:03:40 45° NNE 18:03:40 45° NNE
ARGOS 4.2 18:08:32 30° NNE 18:08:32 30° NNE 18:11:26 10° N
CENTAUR R/B 2.6 18:01:49 10° SSW 18:07:25 52° ESE 18:07:45 52° ESE
ISS -1.7 18:04:21 10° NW 18:05:55 23° NW 18:05:55 23° NW
Cosmos 2112 Rocket 4.0 18:04:57 10° S 18:09:53 65° SE 18:09:53 65° SE
Cosmos 2056 Rocket 4.2 18:05:52 10° NNW 18:09:29 40° NNE 18:09:29 40° NNE
ERS-2 4.1 18:10:45 19° NNW 18:12:35 28° WNW 18:15:44 10° SW
NOSS 3-2 (C) 3.4 18:10:05 10° SSW 18:15:10 56° SE 18:15:10 56° SE
Cosmos 1869 Rocket 3.8 18:13:41 10° NNW 18:22:43 - S 18:17:49 67° WNW
BREEZE-M DEB (TANK) 3.4 18:13:15 10° WSW 18:19:59 65° SW 18:19:59 65° SW
Meteor 1-27 Rocket 3.8 18:15:43 10° S 18:20:11 58° SSE 18:20:11 58° SSE
Meteor 1-10 Rocket 4.5 18:20:08 10° SSW 18:25:44 65° WNW 18:28:50 27° N
Lacrosse 5 rocket 3.7 18:24:53 10° NW 18:25:53 14° NW 18:25:53 14° NW
Cosmos 371 Rocket 4.4 18:25:11 10° NNW 18:28:01 35° NNW 18:28:01 35° NNW
CZ-4B R/B 4.4 18:29:34 10° NW 18:30:31 11° WNW 18:31:37 10° W
NOSS 3-2 (A) 3.6 18:35:16 10° SW 18:40:55 66° NW 18:41:27 63° NNW
YAOGAN 1 4.4 18:46:28 27° NW 18:46:28 27° NW 18:48:55 10° NNW
USA 215 3.1 18:46:42 78° N 18:47:02 81° NW 18:53:34 10° WSW
USA 238 DEB 3.9 18:53:50 10° SW 19:00:21 60° NW 19:00:35 60° NW
USA 238 3.9 18:53:55 10° SW 19:00:27 61° NW 19:00:39 60° NW
USA 281 4.3 19:06:22 10° S 19:12:26 39° WSW 19:18:33 10° NW
H-2A R/B 3.7 19:15:55 31° W 19:15:55 31° W 19:19:49 10° NNW
USA 267 3.8 19:21:32 53° WNW 19:21:32 53° WNW 19:26:25 10° NW
CENTAUR R/B 4.4 19:52:31 10° WSW 19:54:58 24° W 19:54:58 24° W
